[[{"header":{"parameterUnit":"m.s-1","parameterCategory":1,"la1":30.2991,"la2":30.254,"lo1":-89.0895,"lo2":-89.0444,"dy":0.0017,"dx":0.0017,"nx":28,"ny":28,"refTime":"2024-10-09T03:00:00:Z","depth":0,"parameterNumber":2,"parameterNumberName":"U-component_of_WINDS"},"data":[0,0,0,0,0,0,0,0,0,0,0,0,0,0,0,0,0,0,0,0,0,0,0,0,0,0,0,0,0,0,0,0,0,0,0,0,0,0,0,0,0,0,0,0,0,0,0,0,0,0,0,0,0,0,0,0,0,0,-0.8113,-0.8113,0,-0.8132,-0.8132,-0.8132,-0.81,-0.8099,-0.8098,-0.8097,-0.8117,-0.8119,-0.812,0,0,0,0,0,0,0,0,0,0,0,0,0,-0.8051,-0.8052,-0.8113,-0.8113,-0.8114,-0.8132,-0.8132,-0.8132,-0.8101,-0.8099,-0.8098,-0.8097,-0.8117,-0.8119,-0.8121,0,0,0,0,0,0,0,0,0,0,0,0,0,-0.8075,-0.8053,-0.8113,-0.81,-0.8099,-0.8132,-0.8132,-0.8132,-0.8101,-0.8099,-0.8098,-0.8096,-0.8116,-0.8119,-0.8121,-0.8167,0,0,-0.8128,-0.8129,0,0,0,0,0,0,0,0,-0.8073,-0.8077,-0.8102,-0.8101,-0.81,-0.8112,-0.8117,-0.8144,-0.8101,-0.81,-0.8097,-0.8095,-0.8117,-0.8119,-0.8126,-0.8168,-0.8169,-0.8128,-0.813,-0.8131,-0.8131,0,0,0,0,0,0,0,-0.8072,-0.8076,-0.812,-0.8102,-0.8101,-0.8093,-0.8095,-0.8122,-0.8118,-0.81,-0.8098,-0.8101,-0.8116,-0.8124,-0.8126,-0.8169,-0.8128,-0.813,-0.8132,-0.8132,-0.825,-0.8252,0,0,0,0,0,0,-0.8072,-0.8075,-0.812,-0.8121,-0.8082,-0.8096,-0.8098,-0.811,-0.8117,-0.8117,-0.8102,-0.8099,-0.8121,-0.8124,-0.8127,-0.8182,-0.8131,-0.8133,-0.8134,-0.8249,-0.8251,-0.8253,0,0,0,0,0,0,-0.807,-0.8076,-0.8119,-0.8097,-0.8102,-0.8099,-0.8113,-0.8111,-0.8119,-0.8118,-0.8117,-0.8111,-0.812,-0.8124,-0.8157,-0.8182,-0.8134,-0.8136,-0.8246,-0.8249,-0.8252,-0.8293,0,0,0,0,0,0,-0.8069,-0.8076,-0.8093,-0.8098,-0.8103,-0.8149,-0.8114,-0.8113,-0.8123,-0.8119,-0.8126,-0.8126,-0.8119,-0.8154,-0.816,-0.8185,-0.8138,-0.8244,-0.8248,-0.8251,-0.8289,-0.8296,-0.8303,0,0,0,0,0,-0.8067,-0.8104,-0.8094,-0.81,-0.8125,-0.8151,-0.8154,-0.8145,-0.8125,-0.8143,-0.8142,-0.8126,-0.8178,-0.8158,-0.8164,-0.819,-0.8243,-0.8247,-0.8251,-0.8286,-0.8295,-0.8302,0,0,0,0,0,0,-0.8104,-0.8105,-0.8094,-0.8134,-0.8142,-0.8145,-0.8168,-0.8154,-0.8169,-0.8165,-0.8153,-0.8155,-0.8191,-0.8193,-0.817,-0.8235,-0.8207,-0.8213,-0.8232,-0.8241,-0.8247,-0.8247,-0.814,0,0,0,0,0,-0.8116,-0.8136,-0.8136,-0.8172,-0.8177,-0.8171,-0.8182,-0.8174,-0.8182,-0.8186,-0.8188,-0.8197,-0.8215,-0.8228,-0.8245,-0.8289,-0.829,-0.831,-0.8316,-0.8322,-0.8327,-0.8351,-0.8359,-0.8265,-0.8265,-0.8265,0,0,-0.8143,-0.8146,-0.816,-0.818,-0.8185,-0.8207,-0.8175,-0.8199,-0.8215,-0.819,-0.8222,-0.8223,-0.8232,-0.8271,-0.8289,-0.8275,-0.8353,-0.8327,-0.8331,-0.8334,-0.8355,-0.8364,-0.8372,-0.8268,-0.8268,-0.8267,0,0,-0.8203,-0.8207,-0.8237,-0.8243,-0.8252,-0.8248,-0.8255,-0.826,-0.826,-0.8291,-0.8273,-0.8291,-0.8324,-0.8331,-0.8339,-0.84,-0.8386,-0.8406,-0.8442,-0.8465,-0.8472,-0.8479,-0.8501,-0.851,-0.8411,-0.8411,-0.8411,0,-0.8236,-0.8267,-0.8255,-0.828,-0.8289,-0.8267,-0.8297,-0.8304,-0.8318,-0.8325,-0.8308,-0.8348,-0.8352,-0.8393,-0.8408,-0.8415,-0.8423,-0.8406,-0.8472,-0.8479,-0.8484,-0.8506,-0.8514,-0.8413,-0.8413,-0.8413,-0.8413,0,-0.8307,-0.8328,-0.8352,-0.8365,-0.8377,-0.8405,-0.8397,-0.841,-0.8401,-0.8398,-0.8431,-0.8435,-0.8453,-0.8461,-0.8452,-0.85,-0.8492,-0.8474,-0.8446,-0.8496,-0.8516,-0.8524,-0.8417,-0.8416,-0.8415,-0.8415,0,0,-0.8392,-0.8397,-0.8406,-0.8412,-0.8419,-0.8436,-0.8462,-0.8479,-0.8491,-0.8501,-0.8523,-0.855,-0.8534,-0.8543,-0.8534,-0.8554,-0.8603,-0.8534,-0.8534,-0.8547,-0.8657,-0.8671,-0.868,-0.8593,-0.8594,-0.8596,-0.8656,0,-0.8452,-0.8498,-0.8487,-0.8532,-0.8553,-0.8531,-0.8554,-0.8561,-0.8559,-0.8576,-0.8574,-0.8594,-0.857,-0.8575,-0.8594,-0.8593,-0.8625,-0.8588,-0.8614,-0.8615,-0.8614,-0.8691,-0.8706,-0.8763,-0.8664,-0.8665,-0.8666,0,-0.8529,-0.8541,-0.8588,-0.8592,-0.86,-0.8621,-0.8635,-0.8651,-0.8659,-0.8656,-0.8665,-0.8653,-0.8679,-0.865,-0.8686,-0.8661,-0.8671,-0.8672,-0.8674,-0.8677,-0.8645,-0.8697,-0.8781,-0.879,-0.8678,-0.8677,-0.8676,0,-0.8587,-0.8616,-0.8647,-0.8653,-0.8658,-0.8673,-0.8676,-0.8681,-0.8691,-0.8704,-0.871,-0.8725,-0.8734,-0.8746,-0.8738,-0.8717,-0.8776,-0.8746,-0.8775,-0.8775,-0.8789,-0.8789,-0.8877,-0.8794,-0.8794,-0.8794,-0.8793,0,-0.8656,-0.8686,-0.8674,-0.8694,-0.8726,-0.8713,-0.8746,-0.8746,-0.8751,-0.8771,-0.8752,-0.8771,-0.8759,-0.8776,-0.877,-0.8801,-0.8805,-0.8804,-0.8802,-0.8806,-0.8806,-0.8813,-0.881,-0.8796,-0.8795,-0.8795,-0.8794,0,-0.8728,-0.8721,-0.8754,-0.8755,-0.8756,-0.878,-0.8782,-0.88,-0.8796,-0.8821,-0.8826,-0.882,-0.884,-0.8833,-0.8854,-0.8849,-0.889,-0.8882,-0.8887,-0.8886,-0.8916,-0.8913,-0.9012,-0.9025,-0.8933,-0.8933,-0.8934,0,-0.8773,-0.8796,-0.8799,-0.8811,-0.8814,-0.8833,-0.8843,-0.8831,-0.8843,-0.8852,-0.887,-0.8887,-0.8901,-0.8934,-0.8932,-0.8948,-0.8941,-0.8975,-0.8944,-0.8947,-0.8943,-0.8942,-0.8944,-0.8981,-0.8983,-0.8983,-0.8984,0,-0.8854,-0.8849,-0.8865,-0.8879,-0.8892,-0.8903,-0.8912,-0.8922,-0.891,-0.8924,-0.8944,-0.8954,-0.8975,-0.8994,-0.9008,-0.901,-0.8996,-0.8994,-0.9001,-0.9007,-0.9009,-0.9009,-0.8905,-0.8992,-0.8991,-0.899,-0.899,-0.899,-0.8915,-0.8934,-0.8939,-0.8957,-0.8962,-0.8971,-0.8988,-0.8986,-0.9002,-0.9018,-0.901,-0.9033,-0.9039,-0.9056,-0.9061,-0.9078,-0.9065,-0.9077,-0.908,-0.9083,-0.9087,-0.9005,-0.9081,-0.9081,-0.908,-0.908,-0.908,0,-0.8996,-0.8998,-0.9014,-0.9027,-0.9041,-0.9025,-0.9033,-0.9046,-0.9067,-0.9073,-0.9087,-0.911,-0.9127,-0.9126,-0.9142,-0.9156,-0.915,-0.9161,-0.916,-0.9161,-0.9097,-0.9089,-0.9166,-0.9166,-0.9166,-0.9166,-0.9166,-0.9166,-0.904,-0.9071,-0.9067,-0.91,-0.9102,-0.9124,-0.913,-0.9138,-0.9143,-0.9169,-0.9183,-0.9182,-0.9186,-0.9201,-0.9217,-0.9216,-0.9223,-0.9237,-0.9234,-0.9174,-0.9166,-0.9158,-0.915,-0.9238,-0.9238,-0.9296,-0.9297,-0.9297]},{"header":{"parameterUnit":"m.s-1","parameterCategory":1,"la1":30.2991,"la2":30.254,"lo1":-89.0895,"lo2":-89.0444,"dy":0.0017,"dx":0.0017,"nx":28,"ny":28,"refTime":"2024-10-09T03:00:00:Z","depth":0,"parameterNumber":3,"parameterNumberName":"V-component_of_WINDS"},"data":[0,0,0,0,0,0,0,0,0,0,0,0,0,0,0,0,0,0,0,0,0,0,0,0,0,0,0,0,0,0,0,0,0,0,0,0,0,0,0,0,0,0,0,0,0,0,0,0,0,0,0,0,0,0,0,0,0,0,-4.0366,-4.0368,0,-4.0462,-4.0463,-4.0464,-4.0425,-4.0423,-4.042,-4.0418,-4.0512,-4.0516,-4.0521,0,0,0,0,0,0,0,0,0,0,0,0,0,-4.0147,-4.0151,-4.0366,-4.0368,-4.0369,-4.0462,-4.0463,-4.0464,-4.0425,-4.0423,-4.042,-4.0417,-4.051,-4.0516,-4.0521,0,0,0,0,0,0,0,0,0,0,0,0,0,-4.0242,-4.0152,-4.0366,-4.0361,-4.0361,-4.0462,-4.0463,-4.0465,-4.0426,-4.0422,-4.0419,-4.0416,-4.0509,-4.0515,-4.0522,-4.0633,0,0,-4.0543,-4.0546,0,0,0,0,0,0,0,0,-4.0237,-4.025,-4.036,-4.0361,-4.0362,-4.0428,-4.042,-4.0521,-4.0427,-4.0401,-4.0418,-4.0414,-4.0487,-4.0495,-4.052,-4.0637,-4.0641,-4.0544,-4.0548,-4.0551,-4.0553,0,0,0,0,0,0,0,-4.023,-4.0246,-4.0404,-4.0362,-4.0363,-4.0352,-4.0362,-4.0439,-4.0461,-4.0403,-4.04,-4.0413,-4.0486,-4.0514,-4.0522,-4.0642,-4.0544,-4.055,-4.0554,-4.0557,-4.0856,-4.086,0,0,0,0,0,0,-4.0224,-4.0241,-4.0401,-4.0407,-4.029,-4.0359,-4.037,-4.041,-4.0461,-4.0465,-4.0415,-4.041,-4.0504,-4.0514,-4.0525,-4.0659,-4.0551,-4.0557,-4.0561,-4.0852,-4.0857,-4.0861,0,0,0,0,0,0,-4.0219,-4.0239,-4.0397,-4.0323,-4.0343,-4.0366,-4.0412,-4.0414,-4.0441,-4.047,-4.0473,-4.044,-4.0501,-4.0516,-4.0607,-4.0662,-4.0561,-4.0567,-4.0848,-4.0854,-4.0859,-4.0927,0,0,0,0,0,0,-4.0213,-4.0237,-4.028,-4.0325,-4.0347,-4.0478,-4.0415,-4.0418,-4.0454,-4.0448,-4.0494,-4.0498,-4.05,-4.0597,-4.0614,-4.0669,-4.0572,-4.0843,-4.085,-4.0857,-4.092,-4.0934,-4.0946,0,0,0,0,0,-4.0206,-4.0294,-4.0282,-4.0302,-4.0401,-4.0481,-4.0494,-4.0496,-4.0458,-4.0501,-4.052,-4.0496,-4.0653,-4.0606,-4.0625,-4.0684,-4.0839,-4.0848,-4.0856,-4.0914,-4.0931,-4.0946,0,0,0,0,0,0,-4.0253,-4.03,-4.0287,-4.0393,-4.0434,-4.0475,-4.0529,-4.0514,-4.0565,-4.0557,-4.0556,-4.0567,-4.0661,-4.0681,-4.0629,-4.0794,-4.074,-4.0753,-4.0777,-4.0794,-4.0807,-4.08,-4.0578,0,0,0,0,0,-4.0276,-4.0339,-4.0376,-4.0465,-4.0487,-4.0505,-4.054,-4.0538,-4.0579,-4.0596,-4.0621,-4.0661,-4.072,-4.0758,-4.0813,-4.0922,-4.0932,-4.0972,-4.0985,-4.0996,-4.1007,-4.1067,-4.1086,-4.0889,-4.0889,-4.0889,0,0,-4.0324,-4.0357,-4.0397,-4.0476,-4.0507,-4.0572,-4.0519,-4.0589,-4.0636,-4.0606,-4.0694,-4.0715,-4.0759,-4.0861,-4.0906,-4.088,-4.1064,-4.1007,-4.1015,-4.1021,-4.1078,-4.1097,-4.1113,-4.0895,-4.0894,-4.0893,0,0,-4.0444,-4.0476,-4.0555,-4.0588,-4.0637,-4.0648,-4.0668,-4.0711,-4.0724,-4.0813,-4.0792,-4.0848,-4.0949,-4.0982,-4.1012,-4.1147,-4.1128,-4.1165,-4.1234,-4.1293,-4.1309,-4.1323,-4.1372,-4.1389,-4.1176,-4.1176,-4.1176,0,-4.0497,-4.0594,-4.0596,-4.0669,-4.0705,-4.0682,-4.0762,-4.0794,-4.0858,-4.0882,-4.0853,-4.098,-4.1008,-4.1117,-4.1151,-4.1176,-4.1197,-4.116,-4.1307,-4.1321,-4.1333,-4.138,-4.1398,-4.118,-4.118,-4.1179,-4.1179,0,-4.0657,-4.0725,-4.0782,-4.0847,-4.0889,-4.0965,-4.0978,-4.102,-4.1016,-4.103,-4.1122,-4.1155,-4.1218,-4.1244,-4.1238,-4.1353,-4.1335,-4.1306,-4.1253,-4.1357,-4.14,-4.1418,-4.1187,-4.1185,-4.1184,-4.1183,0,0,-4.0808,-4.0875,-4.0896,-4.0926,-4.098,-4.1032,-4.1107,-4.1169,-4.1206,-4.1251,-4.1314,-4.1401,-4.1375,-4.1409,-4.1408,-4.1459,-4.1566,-4.1424,-4.1425,-4.145,-4.1695,-4.1717,-4.1737,-4.1553,-4.1557,-4.1559,-4.1691,0,-4.0933,-4.1066,-4.1071,-4.1192,-4.1255,-4.1236,-4.1301,-4.134,-4.1356,-4.1411,-4.1428,-4.149,-4.1451,-4.1472,-4.1523,-4.1542,-4.1615,-4.1533,-4.1611,-4.1614,-4.1601,-4.176,-4.1783,-4.1906,-4.1708,-4.1711,-4.1713,0,-4.1095,-4.1148,-4.1276,-4.1323,-4.1349,-4.1408,-4.1467,-4.152,-4.1565,-4.1573,-4.1613,-4.1604,-4.168,-4.1624,-4.1729,-4.1674,-4.1706,-4.1721,-4.1725,-4.1733,-4.167,-4.1772,-4.1945,-4.1963,-4.174,-4.1738,-4.1736,0,-4.1194,-4.1297,-4.1387,-4.1413,-4.1469,-4.1511,-4.1536,-4.1578,-4.1616,-4.1667,-4.1692,-4.175,-4.1783,-4.1828,-4.1836,-4.1794,-4.1942,-4.1886,-4.195,-4.195,-4.1982,-4.198,-4.2162,-4.2002,-4.2002,-4.2002,-4.2001,0,-4.1332,-4.1411,-4.1432,-4.1488,-4.1576,-4.1581,-4.1668,-4.169,-4.1727,-4.1786,-4.1773,-4.1828,-4.1835,-4.1892,-4.1898,-4.1985,-4.1999,-4.2008,-4.2008,-4.2009,-4.2008,-4.203,-4.2022,-4.2007,-4.2006,-4.2005,-4.2004,0,-4.1456,-4.1474,-4.1571,-4.1617,-4.1631,-4.1694,-4.1733,-4.1786,-4.1801,-4.1876,-4.1894,-4.1918,-4.1985,-4.1997,-4.2075,-4.208,-4.2184,-4.2175,-4.2169,-4.2168,-4.2232,-4.2226,-4.2435,-4.2463,-4.2285,-4.2287,-4.2288,0,-4.1544,-4.1604,-4.1658,-4.1698,-4.1726,-4.1789,-4.1829,-4.1836,-4.1878,-4.1935,-4.1981,-4.2047,-4.21,-4.2208,-4.2232,-4.2292,-4.2285,-4.2355,-4.2294,-4.2293,-4.2287,-4.2284,-4.229,-4.2366,-4.2368,-4.2369,-4.2371,0,-4.1697,-4.1703,-4.1762,-4.1824,-4.1872,-4.1921,-4.1967,-4.2,-4.2014,-4.2062,-4.2131,-4.2173,-4.2254,-4.232,-4.238,-4.2405,-4.2391,-4.239,-4.2408,-4.2409,-4.2404,-4.2408,-4.2201,-4.2385,-4.2383,-4.2382,-4.2382,-4.2381,-4.1805,-4.1859,-4.1906,-4.1972,-4.2009,-4.2053,-4.2106,-4.2129,-4.2188,-4.2256,-4.2256,-4.2333,-4.2377,-4.2457,-4.2486,-4.2545,-4.2523,-4.2549,-4.2556,-4.2562,-4.2569,-4.2395,-4.2556,-4.2556,-4.2555,-4.2555,-4.2555,0,-4.1958,-4.1988,-4.2049,-4.2116,-4.2168,-4.2152,-4.2203,-4.2248,-4.2315,-4.2359,-4.2412,-4.2493,-4.2557,-4.2587,-4.265,-4.2692,-4.2687,-4.2709,-4.2705,-4.2712,-4.2585,-4.2563,-4.2712,-4.2712,-4.2712,-4.2712,-4.2712,-4.2711,-4.2044,-4.2135,-4.2147,-4.2256,-4.2285,-4.2361,-4.2392,-4.2433,-4.2468,-4.2559,-4.2613,-4.2633,-4.2671,-4.2738,-4.2796,-4.2803,-4.2827,-4.2852,-4.2856,-4.2736,-4.272,-4.2705,-4.2685,-4.2857,-4.2857,-4.2978,-4.2979,-4.298]}]]